Location: Newark
(45.4422°N, 16.2769°E)
Time: 15:47:05
(UTC+00:00)

Courier 1B - Pass Details

Date: 11 December 2019
Orbit: 962 x 1209 km, 28.3° (Epoch: 17 January)

Event Time Altitude Azimuth Distance (km) Brightness Sun altitude
Rises 22:50:49 0° 248° (WSW) 4,016 - -67.6°
Reaches altitude 10° 22:54:32 10° 232° (SW) 3,088 - -67.6°
Maximum altitude 22:59:34 19° 190° (S) 2,507 - -67.5°
Drops below altitude 10° 23:04:41 10° 149° (SSE) 3,138 - -67.3°
Sets 23:08:30 0° 133° (SE) 4,102 - -67.2°
